When you browse on this site, cookies collect data to enhance your experience and personalize the content and advertising you see.
Visit our Privacy Policy to learn more. By continuing to use the site, you agree to this use of cookies and data.
  • Em Portugal
  • Lista de países
  • Para 7 dias
  • Temperatura da água
  • Mapas de satélite
  • Mapa do tempo
  • Widgets de tempo
  • user-avatar
    Iniciar Sessão

    Previsão horária em Osieczow

    Hoje, 24 Março, Domingo

    Tempo Temperatura Precipitação Vento Pressão Humidade
    00:00 +8°C° 0 mm 2 m/s 752 mmHg 90%
    01:00 +8°C° 0 mm 1 m/s 752 mmHg 91%
    02:00 +8°C° 0 mm 1 m/s 752 mmHg 91%
    03:00 +8°C° 0 mm 1 m/s 752 mmHg 91%
    04:00 +7°C° 0 mm 1 m/s 752 mmHg 91%
    05:00 +7°C° 0 mm 1 m/s 752 mmHg 91%
    06:00 +7°C° 0 mm 1 m/s 752 mmHg 90%
    07:00 +7°C° 0 mm 1 m/s 752 mmHg 90%
    08:00 +8°C° 0 mm 1 m/s 752 mmHg 79%
    09:00 +9°C° 0 mm 1 m/s 751 mmHg 68%
    10:00 +10°C° 0 mm 2 m/s 751 mmHg 57%
    11:00 +11°C° 0 mm 1 m/s 751 mmHg 54%
    12:00 +12°C° 0 mm 1 m/s 750 mmHg 51%
    13:00 +13°C° 0 mm 1 m/s 750 mmHg 47%
    14:00 +12°C° 0 mm 1 m/s 749 mmHg 49%
    15:00 +11°C° 0 mm 0 m/s 749 mmHg 51%
    16:00 +10°C° 0 mm 0 m/s 748 mmHg 52%
    17:00 +11°C° 0 mm 1 m/s 748 mmHg 56%
    18:00 +10°C° 0 mm 1 m/s 748 mmHg 59%
    19:00 +9°C° 0 mm 1 m/s 747 mmHg 62%
    20:00 +8°C° 0 mm 2 m/s 747 mmHg 64%
    21:00 +8°C° 0 mm 2 m/s 747 mmHg 66%
    22:00 +7°C° 0 mm 2 m/s 746 mmHg 67%
    23:00 +6°C° 0 mm 2 m/s 746 mmHg 72%

    Amanhã, 25 Março, Segunda-feira

    Tempo Temperatura Precipitação Vento Pressão Humidade
    00:00 +6°C° 0 mm 2 m/s 746 mmHg 76%
    01:00 +5°C° 0 mm 2 m/s 745 mmHg 80%
    02:00 +4°C° 0 mm 2 m/s 745 mmHg 82%
    03:00 +3°C° 0 mm 3 m/s 744 mmHg 84%
    04:00 +2°C° 0 mm 3 m/s 744 mmHg 86%
    05:00 +2°C° 0 mm 3 m/s 744 mmHg 83%
    06:00 +1°C° 0 mm 4 m/s 743 mmHg 81%
    07:00 +1°C° 0 mm 4 m/s 743 mmHg 78%
    08:00 +2°C° 0.1 mm 5 m/s 743 mmHg 73%
    09:00 +3°C° 0.1 mm 6 m/s 742 mmHg 68%
    10:00 +4°C° 0.1 mm 7 m/s 742 mmHg 63%
    11:00 +4°C° 0.6 mm 7 m/s 742 mmHg 63%
    12:00 +4°C° 0.6 mm 6 m/s 742 mmHg 63%
    13:00 +5°C° 0.6 mm 5 m/s 742 mmHg 63%
    14:00 +6°C° 0.3 mm 5 m/s 742 mmHg 61%
    15:00 +6°C° 0.3 mm 5 m/s 743 mmHg 59%
    16:00 +6°C° 0.3 mm 5 m/s 743 mmHg 57%
    17:00 +5°C° 0.4 mm 4 m/s 743 mmHg 65%
    18:00 +4°C° 0.4 mm 3 m/s 744 mmHg 73%
    19:00 +3°C° 0.4 mm 3 m/s 744 mmHg 80%
    20:00 +2°C° 0.2 mm 3 m/s 745 mmHg 83%
    21:00 +3°C° 0.2 mm 2 m/s 746 mmHg 86%
    22:00 +2°C° 0.2 mm 2 m/s 747 mmHg 89%
    23:00 +2°C° 0 mm 2 m/s 748 mmHg 90%

    Depois de amanhã, 26 Março, Terça-feira

    Tempo Temperatura Precipitação Vento Pressão Humidade
    00:00 +1°C° 0 mm 2 m/s 748 mmHg 91%
    01:00 +1°C° 0 mm 2 m/s 749 mmHg 92%
    02:00 -1°C° 0 mm 2 m/s 749 mmHg 94%
    03:00 -1°C° 0 mm 2 m/s 750 mmHg 95%
    04:00 -1°C° 0 mm 2 m/s 750 mmHg 97%
    05:00 -1°C° 0 mm 2 m/s 750 mmHg 96%
    06:00 0°C° 0 mm 3 m/s 751 mmHg 94%
    07:00 0°C° 0 mm 3 m/s 751 mmHg 93%
    08:00 +1°C° 0 mm 4 m/s 751 mmHg 86%
    09:00 +2°C° 0 mm 5 m/s 752 mmHg 80%
    10:00 +5°C° 0 mm 5 m/s 752 mmHg 73%
    11:00 +5°C° 0 mm 6 m/s 752 mmHg 70%
    12:00 +5°C° 0 mm 6 m/s 751 mmHg 67%
    13:00 +6°C° 0 mm 7 m/s 751 mmHg 64%
    14:00 +5°C° 0 mm 7 m/s 751 mmHg 64%
    15:00 +5°C° 0 mm 7 m/s 751 mmHg 65%
    16:00 +5°C° 0 mm 7 m/s 751 mmHg 65%
    17:00 +4°C° 0.1 mm 6 m/s 751 mmHg 68%
    18:00 +3°C° 0.1 mm 5 m/s 751 mmHg 71%
    19:00 +3°C° 0.1 mm 4 m/s 751 mmHg 74%
    20:00 +3°C° 0 mm 4 m/s 752 mmHg 75%
    21:00 +3°C° 0 mm 4 m/s 752 mmHg 77%
    22:00 +3°C° 0 mm 3 m/s 752 mmHg 79%
    23:00 +2°C° 0.1 mm 3 m/s 752 mmHg 82%

    27 Março, Quarta-feira

    Tempo Temperatura Precipitação Vento Pressão Humidade
    00:00 +2°C° 0.1 mm 3 m/s 753 mmHg 86%
    01:00 +2°C° 0.1 mm 3 m/s 753 mmHg 89%
    02:00 +2°C° 0 mm 2 m/s 753 mmHg 91%
    03:00 +2°C° 0 mm 2 m/s 753 mmHg 94%
    04:00 +1°C° 0 mm 2 m/s 753 mmHg 96%
    05:00 +2°C° 0 mm 2 m/s 753 mmHg 95%
    06:00 +2°C° 0 mm 2 m/s 753 mmHg 93%
    07:00 +3°C° 0 mm 2 m/s 753 mmHg 92%
    08:00 +3°C° 0 mm 3 m/s 753 mmHg 87%
    09:00 +4°C° 0 mm 3 m/s 753 mmHg 83%
    10:00 +5°C° 0 mm 4 m/s 753 mmHg 78%
    11:00 +6°C° 0 mm 4 m/s 753 mmHg 74%
    12:00 +7°C° 0 mm 4 m/s 753 mmHg 70%
    13:00 +7°C° 0 mm 5 m/s 753 mmHg 66%
    14:00 +7°C° 0 mm 4 m/s 753 mmHg 67%
    15:00 +7°C° 0 mm 4 m/s 753 mmHg 68%
    16:00 +7°C° 0 mm 4 m/s 753 mmHg 68%
    17:00 +6°C° 0.2 mm 4 m/s 753 mmHg 75%
    18:00 +7°C° 0.2 mm 3 m/s 753 mmHg 81%
    19:00 +6°C° 0.2 mm 2 m/s 753 mmHg 87%
    20:00 +6°C° 0.1 mm 2 m/s 753 mmHg 89%
    21:00 +6°C° 0.1 mm 2 m/s 754 mmHg 91%
    22:00 +6°C° 0.1 mm 2 m/s 754 mmHg 94%
    23:00 +6°C° 0.1 mm 2 m/s 754 mmHg 95%

    28 Março, Quinta-feira

    Tempo Temperatura Precipitação Vento Pressão Humidade
    00:00 +6°C° 0.1 mm 2 m/s 754 mmHg 96%
    01:00 +5°C° 0.1 mm 2 m/s 754 mmHg 96%
    02:00 +5°C° 0 mm 2 m/s 754 mmHg 96%
    03:00 +5°C° 0 mm 2 m/s 754 mmHg 96%
    04:00 +5°C° 0 mm 2 m/s 754 mmHg 96%
    05:00 +5°C° 0 mm 2 m/s 754 mmHg 95%
    06:00 +5°C° 0 mm 2 m/s 755 mmHg 94%
    07:00 +6°C° 0 mm 1 m/s 755 mmHg 94%
    08:00 +6°C° 0 mm 2 m/s 755 mmHg 86%
    09:00 +8°C° 0 mm 2 m/s 755 mmHg 78%
    10:00 +9°C° 0 mm 2 m/s 756 mmHg 71%
    11:00 +9°C° 0 mm 2 m/s 756 mmHg 70%
    12:00 +10°C° 0 mm 2 m/s 756 mmHg 69%
    13:00 +10°C° 0 mm 3 m/s 756 mmHg 68%
    14:00 +10°C° 0 mm 2 m/s 755 mmHg 67%
    15:00 +10°C° 0 mm 2 m/s 755 mmHg 67%
    16:00 +10°C° 0 mm 2 m/s 755 mmHg 67%
    17:00 +9°C° 0 mm 2 m/s 755 mmHg 72%
    18:00 +8°C° 0 mm 2 m/s 755 mmHg 78%
    19:00 +7°C° 0 mm 2 m/s 755 mmHg 83%
    20:00 +7°C° 0 mm 2 m/s 756 mmHg 84%
    21:00 +7°C° 0 mm 2 m/s 756 mmHg 85%
    22:00 +7°C° 0 mm 2 m/s 756 mmHg 85%
    23:00 +6°C° 0 mm 2 m/s 756 mmHg 87%

    29 Março, Sexta-feira

    Tempo Temperatura Precipitação Vento Pressão Humidade
    00:00 +7°C° 0 mm 1 m/s 756 mmHg 89%
    01:00 +7°C° 0 mm 1 m/s 756 mmHg 91%
    02:00 +6°C° 0 mm 1 m/s 756 mmHg 92%
    03:00 +6°C° 0 mm 1 m/s 756 mmHg 93%
    04:00 +5°C° 0 mm 1 m/s 756 mmHg 94%
    05:00 +5°C° 0 mm 1 m/s 756 mmHg 93%
    06:00 +6°C° 0 mm 1 m/s 756 mmHg 91%
    07:00 +5°C° 0 mm 2 m/s 756 mmHg 89%
    08:00 +7°C° 0 mm 2 m/s 756 mmHg 80%
    09:00 +9°C° 0 mm 2 m/s 756 mmHg 72%
    10:00 +12°C° 0 mm 2 m/s 757 mmHg 63%
    11:00 +13°C° 0 mm 2 m/s 756 mmHg 60%
    12:00 +13°C° 0 mm 2 m/s 756 mmHg 56%
    13:00 +14°C° 0 mm 2 m/s 756 mmHg 53%
    14:00 +14°C° 0 mm 2 m/s 755 mmHg 55%
    15:00 +14°C° 0 mm 2 m/s 755 mmHg 58%
    16:00 +14°C° 0 mm 2 m/s 754 mmHg 60%
    17:00 +12°C° 0 mm 2 m/s 754 mmHg 68%
    18:00 +11°C° 0 mm 1 m/s 754 mmHg 76%
    19:00 +9°C° 0 mm 1 m/s 754 mmHg 85%
    20:00 +9°C° 0 mm 1 m/s 754 mmHg 86%
    21:00 +8°C° 0 mm 1 m/s 754 mmHg 88%
    22:00 +7°C° 0 mm 0 m/s 754 mmHg 90%
    23:00 +7°C° 0 mm 0 m/s 754 mmHg 90%
    Mostrar mais